FFT3513 KLAS-KSFO

Flight info

Callsign FFT3513
Flight time 1h 7m
Altitude 30000
Route JOHKR5 KENNO RUSME DYAMD5
Aircraft A21N/M-SDE2E3FGHIRWXY/LB1

Departure

Time 2026-05-03 22:58
Airport Harry Reid International Airport (KLAS)

Arrival

Time 2026-05-04 00:06
Airport San Francisco International Airport (KSFO)
Time Latitude Longitude Altitude Speed Heading
2026-05-03 22:25 36.08519 -115.13846 2098 ft 0 kts
2026-05-03 22:49 36.08508 -115.13846 2098 ft 4 kts
2026-05-03 22:49 36.08481 -115.13846 2098 ft 4 kts
2026-05-03 22:50 36.08460 -115.13846 2098 ft 4 kts 13°
2026-05-03 22:50 36.08444 -115.13861 2098 ft 4 kts 79°
2026-05-03 22:50 36.08443 -115.13892 2098 ft 4 kts 90°
2026-05-03 22:50 36.08443 -115.13898 2098 ft 3 kts 90°
2026-05-03 22:52 36.08443 -115.13895 2098 ft 2 kts 90°
2026-05-03 22:52 36.08443 -115.13850 2098 ft 8 kts 90°
2026-05-03 22:52 36.08442 -115.13760 2098 ft 12 kts 90°
2026-05-03 22:53 36.08442 -115.13649 2098 ft 14 kts 90°
2026-05-03 22:53 36.08442 -115.13522 2098 ft 16 kts 90°
2026-05-03 22:53 36.08408 -115.13436 2098 ft 12 kts 133°
2026-05-03 22:53 36.08346 -115.13359 2098 ft 13 kts 130°
2026-05-03 22:54 36.08268 -115.13295 2096 ft 14 kts 176°
2026-05-03 22:54 36.08170 -115.13297 2093 ft 15 kts 181°
2026-05-03 22:54 36.08063 -115.13297 2093 ft 16 kts 177°
2026-05-03 22:54 36.07950 -115.13296 2093 ft 13 kts 179°
2026-05-03 22:55 36.07858 -115.13292 2093 ft 14 kts 171°
2026-05-03 22:55 36.07764 -115.13257 2092 ft 15 kts 122°
2026-05-03 22:55 36.07754 -115.13125 2088 ft 16 kts 90°
2026-05-03 22:55 36.07750 -115.12982 2082 ft 17 kts 89°
2026-05-03 22:56 36.07751 -115.12831 2076 ft 18 kts 88°
2026-05-03 22:56 36.07753 -115.12673 2070 ft 19 kts 86°
2026-05-03 22:56 36.07753 -115.12507 2064 ft 20 kts 89°
2026-05-03 22:56 36.07752 -115.12334 2059 ft 21 kts 87°
2026-05-03 22:57 36.07751 -115.12182 2055 ft 10 kts 96°
2026-05-03 22:57 36.07695 -115.12126 2053 ft 12 kts 172°
2026-05-03 22:57 36.07644 -115.12191 2055 ft 0 kts 266°
2026-05-03 22:57 36.07643 -115.12205 2055 ft 18 kts 266°
2026-05-03 22:58 36.07641 -115.12781 2075 ft 114 kts 269°
2026-05-03 22:58 36.07643 -115.14134 2195 ft 193 kts 267°
2026-05-03 22:58 36.07682 -115.16017 2691 ft 241 kts 266°
2026-05-03 22:58 36.07718 -115.18149 3375 ft 244 kts 264°
2026-05-03 22:59 36.07672 -115.20243 4200 ft 242 kts 259°
2026-05-03 22:59 36.07443 -115.22298 4953 ft 243 kts 255°
2026-05-03 22:59 36.07060 -115.24335 5688 ft 242 kts 244°
2026-05-03 22:59 36.06158 -115.26048 6366 ft 240 kts 220°
2026-05-03 23:00 36.04711 -115.27135 6850 ft 250 kts 200°
2026-05-03 23:00 36.03612 -115.27615 7248 ft 256 kts 198°
2026-05-03 23:00 36.01911 -115.28318 7738 ft 260 kts 198°
2026-05-03 23:00 36.00190 -115.29051 7989 ft 262 kts 199°
2026-05-03 23:01 35.98514 -115.29915 8094 ft 262 kts 205°
2026-05-03 23:01 35.96878 -115.30961 8685 ft 268 kts 206°
2026-05-03 23:01 35.95220 -115.32040 9500 ft 271 kts 206°
2026-05-03 23:01 35.93560 -115.33122 10244 ft 271 kts 206°
2026-05-03 23:02 35.91895 -115.34210 10734 ft 272 kts 207°
2026-05-03 23:02 35.90268 -115.35392 10966 ft 272 kts 216°
2026-05-03 23:02 35.89015 -115.37144 11017 ft 277 kts 237°
2026-05-03 23:02 35.88434 -115.39444 11020 ft 289 kts 261°
2026-05-03 23:03 35.88439 -115.41916 11022 ft 290 kts 267°
2026-05-03 23:03 35.88541 -115.44407 11020 ft 290 kts 268°
2026-05-03 23:03 35.88630 -115.46888 11014 ft 289 kts 266°
2026-05-03 23:03 35.88702 -115.49356 11005 ft 288 kts 266°
2026-05-03 23:04 35.88763 -115.51830 11005 ft 288 kts 266°
2026-05-03 23:04 35.88818 -115.54303 11006 ft 289 kts 266°
2026-05-03 23:04 35.88869 -115.56780 11011 ft 295 kts 266°
2026-05-03 23:04 35.88917 -115.59421 11196 ft 320 kts 267°
2026-05-03 23:05 35.88970 -115.62218 11680 ft 332 kts 267°
2026-05-03 23:05 35.89026 -115.65077 12435 ft 335 kts 267°
2026-05-03 23:05 35.89082 -115.67983 13116 ft 342 kts 267°
2026-05-03 23:05 35.89138 -115.70928 13821 ft 346 kts 266°
2026-05-03 23:06 35.89191 -115.73899 14493 ft 348 kts 267°
2026-05-03 23:06 35.89246 -115.76904 15171 ft 351 kts 267°
2026-05-03 23:06 35.89298 -115.79923 15854 ft 354 kts 268°
2026-05-03 23:06 35.89352 -115.82965 16559 ft 356 kts 267°
2026-05-03 23:07 35.89405 -115.86034 17267 ft 358 kts 268°
2026-05-03 23:07 35.89458 -115.89117 17948 ft 361 kts 267°
2026-05-03 23:07 35.89746 -115.92217 18538 ft 369 kts 279°
2026-05-03 23:07 35.90748 -115.95162 19167 ft 379 kts 298°
2026-05-03 23:08 35.92459 -115.97685 19794 ft 387 kts 310°
2026-05-03 23:08 35.94391 -116.00002 20417 ft 389 kts 311°
2026-05-03 23:08 35.96344 -116.02330 20947 ft 392 kts 311°
2026-05-03 23:08 35.98300 -116.04702 21500 ft 395 kts 310°
2026-05-03 23:09 36.00249 -116.07090 22088 ft 395 kts 310°
2026-05-03 23:09 36.02195 -116.09489 22638 ft 398 kts 309°
2026-05-03 23:09 36.04161 -116.11921 23205 ft 401 kts 309°
2026-05-03 23:09 36.06138 -116.14355 23677 ft 402 kts 309°
2026-05-03 23:10 36.08116 -116.16799 24203 ft 402 kts 308°
2026-05-03 23:10 36.10092 -116.19244 24754 ft 401 kts 308°
2026-05-03 23:10 36.12062 -116.21681 25321 ft 400 kts 307°
2026-05-03 23:10 36.14024 -116.24122 25798 ft 401 kts 307°
2026-05-03 23:11 36.15966 -116.26530 26284 ft 401 kts 307°
2026-05-03 23:11 36.17929 -116.28973 26820 ft 400 kts 306°
2026-05-03 23:11 36.19884 -116.31417 27350 ft 399 kts 306°
2026-05-03 23:11 36.21835 -116.33852 27857 ft 398 kts 305°
2026-05-03 23:12 36.23783 -116.36289 28350 ft 397 kts 305°
2026-05-03 23:12 36.25726 -116.38717 28847 ft 396 kts 304°
2026-05-03 23:12 36.27657 -116.41125 29415 ft 392 kts 304°
2026-05-03 23:12 36.29604 -116.43469 29685 ft 391 kts 305°
2026-05-03 23:13 36.31584 -116.45826 29715 ft 397 kts 306°
2026-05-03 23:13 36.35580 -116.50568 29690 ft 397 kts 306°
2026-05-03 23:14 36.39566 -116.55311 29678 ft 396 kts 306°
2026-05-03 23:14 36.43550 -116.60060 29698 ft 397 kts 306°
2026-05-03 23:15 36.47622 -116.64738 29680 ft 401 kts 307°
2026-05-03 23:15 36.51786 -116.69472 29676 ft 407 kts 308°
2026-05-03 23:16 36.55962 -116.74217 29673 ft 406 kts 308°
2026-05-03 23:16 36.60126 -116.78968 29666 ft 406 kts 308°
2026-05-03 23:17 36.64291 -116.83723 29699 ft 408 kts 309°
2026-05-03 23:17 36.68539 -116.88586 29685 ft 416 kts 309°
2026-05-03 23:18 36.72803 -116.93404 29664 ft 416 kts 311°
2026-05-03 23:18 36.75213 -116.95485 29661 ft 427 kts 321°
2026-05-03 23:18 36.77849 -116.97240 29670 ft 431 kts 323°
2026-05-03 23:19 36.83189 -117.00630 29675 ft 430 kts 325°
2026-05-03 23:19 36.88527 -117.04089 29675 ft 434 kts 325°
2026-05-03 23:20 36.93869 -117.07564 29670 ft 433 kts 325°
2026-05-03 23:20 36.99239 -117.11047 29688 ft 433 kts 325°
2026-05-03 23:21 37.04583 -117.14528 29693 ft 440 kts 327°
2026-05-03 23:21 37.10016 -117.18074 29709 ft 439 kts 327°
2026-05-03 23:22 37.18082 -117.23344 29696 ft 436 kts 327°
2026-05-03 23:22 37.23465 -117.26872 29705 ft 437 kts 329°
2026-05-03 23:23 37.28843 -117.30426 29707 ft 436 kts 327°
2026-05-03 23:23 37.33603 -117.35026 29717 ft 431 kts 316°
2026-05-03 23:24 37.38156 -117.39934 29706 ft 431 kts 316°
2026-05-03 23:24 37.42722 -117.44838 29715 ft 432 kts 316°
2026-05-03 23:25 37.47062 -117.50011 29716 ft 427 kts 304°
2026-05-03 23:25 37.49684 -117.56603 29711 ft 422 kts 282°
2026-05-03 23:26 37.50459 -117.63884 29709 ft 417 kts 273°
2026-05-03 23:26 37.51002 -117.71166 29717 ft 423 kts 275°
2026-05-03 23:27 37.51596 -117.78555 29702 ft 426 kts 275°
2026-05-03 23:27 37.52201 -117.86042 29703 ft 433 kts 275°
2026-05-03 23:28 37.52805 -117.93559 29709 ft 430 kts 275°
2026-05-03 23:28 37.53394 -118.00960 29714 ft 428 kts 275°
2026-05-03 23:29 37.53991 -118.08531 29717 ft 430 kts 274°
2026-05-03 23:29 37.54578 -118.16053 29751 ft 430 kts 274°
2026-05-03 23:30 37.55160 -118.23543 29781 ft 427 kts 274°
2026-05-03 23:30 37.55733 -118.31002 29775 ft 427 kts 274°
2026-05-03 23:31 37.56309 -118.38521 29785 ft 434 kts 274°
2026-05-03 23:31 37.56883 -118.46107 29784 ft 435 kts 274°
2026-05-03 23:32 37.57454 -118.53702 29780 ft 435 kts 274°
2026-05-03 23:32 37.57736 -118.57497 29907 ft 435 kts 274°
2026-05-03 23:32 37.58018 -118.61299 29928 ft 433 kts 274°
2026-05-03 23:33 37.58571 -118.68807 30000 ft 434 kts 273°
2026-05-03 23:33 37.59127 -118.76451 30016 ft 437 kts 274°
2026-05-03 23:34 37.59678 -118.84080 30011 ft 436 kts 274°
2026-05-03 23:34 37.60226 -118.91689 30006 ft 435 kts 273°
2026-05-03 23:35 37.60770 -118.99352 30004 ft 445 kts 274°
2026-05-03 23:35 37.61317 -119.07134 29919 ft 444 kts 274°
2026-05-03 23:36 37.61860 -119.14900 29924 ft 445 kts 273°
2026-05-03 23:36 37.62397 -119.22700 29919 ft 446 kts 273°
2026-05-03 23:37 37.62929 -119.30463 29940 ft 443 kts 273°
2026-05-03 23:37 37.63455 -119.38218 29944 ft 444 kts 273°
2026-05-03 23:38 37.63977 -119.46000 29936 ft 445 kts 273°
2026-05-03 23:38 37.64495 -119.53762 29949 ft 444 kts 273°
2026-05-03 23:39 37.65008 -119.61553 29949 ft 450 kts 274°
2026-05-03 23:39 37.65523 -119.69447 29950 ft 451 kts 274°
2026-05-03 23:40 37.66030 -119.77314 29948 ft 449 kts 274°
2026-05-03 23:40 37.66530 -119.85184 29960 ft 449 kts 274°
2026-05-03 23:41 37.67026 -119.93011 29941 ft 445 kts 274°
2026-05-03 23:41 37.67510 -120.00749 29930 ft 446 kts 274°
2026-05-03 23:42 37.67993 -120.08570 29923 ft 447 kts 274°
2026-05-03 23:42 37.68470 -120.16394 29873 ft 445 kts 274°
2026-05-03 23:43 37.68704 -120.20244 29540 ft 437 kts 274°
2026-05-03 23:43 37.68935 -120.24058 29259 ft 433 kts 274°
2026-05-03 23:43 37.69161 -120.27837 28974 ft 431 kts 274°
2026-05-03 23:43 37.69385 -120.31604 28580 ft 428 kts 274°
2026-05-03 23:44 37.69606 -120.35327 28091 ft 424 kts 274°
2026-05-03 23:44 37.69817 -120.39029 27603 ft 421 kts 272°
2026-05-03 23:44 37.69704 -120.42655 27134 ft 416 kts 261°
2026-05-03 23:44 37.69430 -120.45089 26794 ft 414 kts 259°
2026-05-03 23:45 37.68993 -120.48672 26293 ft 412 kts 259°
2026-05-03 23:45 37.68420 -120.53382 25656 ft 408 kts 259°
2026-05-03 23:45 37.67998 -120.56917 25193 ft 406 kts 259°
2026-05-03 23:45 37.67584 -120.60428 24705 ft 403 kts 259°
2026-05-03 23:46 37.67173 -120.63922 24224 ft 402 kts 259°
2026-05-03 23:46 37.66763 -120.67403 23738 ft 400 kts 259°
2026-05-03 23:46 37.66487 -120.69743 23403 ft 399 kts 259°
2026-05-03 23:46 37.66078 -120.73197 22855 ft 397 kts 259°
2026-05-03 23:47 37.65670 -120.76629 22356 ft 393 kts 259°
2026-05-03 23:47 37.65263 -120.80024 21856 ft 390 kts 258°
2026-05-03 23:47 37.64857 -120.83400 21357 ft 387 kts 258°
2026-05-03 23:47 37.64454 -120.86741 20882 ft 382 kts 258°
2026-05-03 23:48 37.64058 -120.90028 20433 ft 377 kts 258°
2026-05-03 23:48 37.63665 -120.93271 19995 ft 371 kts 258°
2026-05-03 23:48 37.63277 -120.96465 19577 ft 366 kts 258°
2026-05-03 23:48 37.62870 -120.99603 19153 ft 360 kts 257°
2026-05-03 23:49 37.62452 -121.02695 18745 ft 355 kts 257°
2026-05-03 23:49 37.62042 -121.05736 18362 ft 349 kts 257°
2026-05-03 23:49 37.61639 -121.08735 17938 ft 344 kts 257°
2026-05-03 23:49 37.61243 -121.11682 17500 ft 339 kts 257°
2026-05-03 23:50 37.60850 -121.14599 17087 ft 337 kts 257°
2026-05-03 23:50 37.60459 -121.17507 16709 ft 335 kts 257°
2026-05-03 23:50 37.60071 -121.20397 16341 ft 334 kts 257°
2026-05-03 23:50 37.59682 -121.23274 15978 ft 333 kts 257°
2026-05-03 23:51 37.59293 -121.26152 15619 ft 333 kts 257°
2026-05-03 23:51 37.58930 -121.29035 15255 ft 333 kts 258°
2026-05-03 23:51 37.58605 -121.31925 14891 ft 333 kts 259°
2026-05-03 23:51 37.58280 -121.34822 14508 ft 334 kts 259°
2026-05-03 23:52 37.57951 -121.37724 14114 ft 336 kts 259°
2026-05-03 23:52 37.57617 -121.40643 13717 ft 337 kts 259°
2026-05-03 23:52 37.57282 -121.43552 13283 ft 333 kts 258°
2026-05-03 23:52 37.56951 -121.46419 12887 ft 327 kts 258°
2026-05-03 23:53 37.56627 -121.49224 12508 ft 321 kts 258°
2026-05-03 23:53 37.56306 -121.51983 12120 ft 315 kts 258°
2026-05-03 23:53 37.55995 -121.54651 11737 ft 310 kts 258°
2026-05-03 23:53 37.55679 -121.57350 11357 ft 306 kts 258°
2026-05-03 23:54 37.55368 -121.60007 10979 ft 306 kts 258°
2026-05-03 23:54 37.55025 -121.62620 10609 ft 307 kts 253°
2026-05-03 23:54 37.54467 -121.65165 10262 ft 296 kts 249°
2026-05-03 23:54 37.53870 -121.67610 9934 ft 289 kts 249°
2026-05-03 23:55 37.53287 -121.70013 9603 ft 284 kts 249°
2026-05-03 23:55 37.52729 -121.72347 9384 ft 273 kts 249°
2026-05-03 23:55 37.52187 -121.74611 9047 ft 267 kts 249°
2026-05-03 23:55 37.51656 -121.76829 8676 ft 262 kts 249°
2026-05-03 23:56 37.51131 -121.79017 8351 ft 261 kts 249°
2026-05-03 23:56 37.50609 -121.81196 8023 ft 258 kts 249°
2026-05-03 23:56 37.50101 -121.83317 7784 ft 248 kts 249°
2026-05-03 23:56 37.49608 -121.85369 7537 ft 243 kts 249°
2026-05-03 23:57 37.49160 -121.87411 7190 ft 242 kts 256°
2026-05-03 23:57 37.49113 -121.89545 6763 ft 246 kts 271°
2026-05-03 23:57 37.49254 -121.91687 6384 ft 245 kts 272°
2026-05-03 23:57 37.49400 -121.93815 6029 ft 240 kts 271°
2026-05-03 23:58 37.49530 -121.95812 5994 ft 218 kts 270°
2026-05-03 23:58 37.49647 -121.97664 5782 ft 208 kts 270°
2026-05-03 23:58 37.49756 -121.99463 5454 ft 204 kts 270°
2026-05-03 23:58 37.49859 -122.01233 5130 ft 201 kts 269°
2026-05-03 23:59 37.49960 -122.02963 4966 ft 197 kts 271°
2026-05-03 23:59 37.50057 -122.04671 4664 ft 194 kts 269°
2026-05-03 23:59 37.50154 -122.06354 4339 ft 190 kts 269°
2026-05-03 23:59 37.50314 -122.07984 4119 ft 181 kts 277°
2026-05-04 00:00 37.50637 -122.09387 3953 ft 157 kts 285°
2026-05-04 00:00 37.51025 -122.10659 3799 ft 156 kts 288°
2026-05-04 00:00 37.51454 -122.11903 3534 ft 154 kts 289°
2026-05-04 00:00 37.51896 -122.13106 3268 ft 150 kts 289°
2026-05-04 00:01 37.52361 -122.14267 3024 ft 147 kts 292°
2026-05-04 00:01 37.52835 -122.15414 2958 ft 149 kts 293°
2026-05-04 00:01 37.53320 -122.16571 2963 ft 148 kts 292°
2026-05-04 00:01 37.53798 -122.17713 2955 ft 148 kts 293°
2026-05-04 00:02 37.54280 -122.18858 2878 ft 146 kts 293°
2026-05-04 00:02 37.54755 -122.19990 2769 ft 147 kts 294°
2026-05-04 00:02 37.55233 -122.21127 2608 ft 145 kts 292°
2026-05-04 00:02 37.55701 -122.22242 2430 ft 144 kts 292°
2026-05-04 00:03 37.56169 -122.23359 2234 ft 144 kts 292°
2026-05-04 00:03 37.56633 -122.24464 2036 ft 141 kts 291°
2026-05-04 00:03 37.57088 -122.25549 1851 ft 139 kts 291°
2026-05-04 00:03 37.57547 -122.26643 1657 ft 143 kts 293°
2026-05-04 00:04 37.58027 -122.27743 1591 ft 142 kts 294°
2026-05-04 00:04 37.58507 -122.28837 1389 ft 144 kts 295°
2026-05-04 00:04 37.58964 -122.29948 1165 ft 142 kts 295°
2026-05-04 00:04 37.59426 -122.31038 902 ft 142 kts 295°
2026-05-04 00:05 37.59914 -122.32136 660 ft 144 kts 293°
2026-05-04 00:05 37.60386 -122.33258 470 ft 145 kts 291°
2026-05-04 00:05 37.60842 -122.34387 283 ft 144 kts 290°
2026-05-04 00:05 37.61295 -122.35520 119 ft 144 kts 292°
2026-05-04 00:06 37.61753 -122.36634 36 ft 138 kts 295°
2026-05-04 00:06 37.62096 -122.37486 24 ft 50 kts 295°
2026-05-04 00:06 37.62130 -122.37705 24 ft 15 kts 229°
2026-05-04 00:06 37.62082 -122.37770 24 ft 0 kts 228°
2026-05-04 00:07 37.62033 -122.37841 25 ft 16 kts 235°
2026-05-04 00:08 37.61945 -122.37936 26 ft 18 kts 190°
2026-05-04 00:08 37.61816 -122.37876 24 ft 16 kts 184°
2026-05-04 00:08 37.61717 -122.37912 26 ft 18 kts 225°
2026-05-04 00:08 37.61598 -122.38005 26 ft 23 kts 204°
2026-05-04 00:09 37.61470 -122.38091 25 ft 23 kts 208°
2026-05-04 00:09 37.61344 -122.38172 24 ft 21 kts 207°
2026-05-04 00:09 37.61234 -122.38255 24 ft 20 kts 228°
2026-05-04 00:09 37.61189 -122.38360 27 ft 10 kts 226°
2026-05-04 00:10 37.61194 -122.38420 25 ft 4 kts 296°
2026-05-04 00:10 37.61200 -122.38435 24 ft 0 kts 297°